Time,TemperatureF,DewpointF,PressureIn,WindDirection,WindDirectionDegrees,WindSpeedMPH,WindSpeedGustMPH,Humidity,HourlyPrecipIn,Conditions,Clouds,dailyrainin,SolarRadiationWatts/m^2,SoftwareType,DateUTC
2013-07-03 00:00:00,64.5,60.5,30.00,NNW,347,1.0,3.0,87,0.00,FEW,,0.00,0.0,WeatherDisplay:10.37,2013-07-03 05:00:00,
2013-07-03 00:10:00,64.4,60.8,30.00,NW,322,1.0,4.0,88,0.00,CLR,,0.00,0.0,WeatherDisplay:10.37,2013-07-03 05:10:00,
2013-07-03 00:20:00,64.1,60.5,30.00,WNW,293,0.0,3.0,88,0.00,CLR,,0.00,0.0,WeatherDisplay:10.37,2013-07-03 05:20:00,
2013-07-03 00:30:00,64.0,60.7,30.00,NW,324,1.0,4.0,89,0.00,CLR,,0.00,0.0,WeatherDisplay:10.37,2013-07-03 05:30:00,
2013-07-03 00:40:00,64.1,60.8,30.00,NNW,327,0.0,5.0,89,0.00,CLR,,0.00,0.0,WeatherDisplay:10.37,2013-07-03 05:40:00,
2013-07-03 00:50:00,63.7,60.7,30.00,WNW,297,1.0,2.0,90,0.00,CLR,,0.00,0.0,WeatherDisplay:10.37,2013-07-03 05:50:00,
2013-07-03 01:00:00,63.4,60.4,30.00,NW,313,1.0,2.0,90,0.00,CLR,,0.00,0.0,WeatherDisplay:10.37,2013-07-03 06:00:00,
2013-07-03 01:10:00,63.2,60.6,30.00,NW,310,0.0,3.0,91,0.00,CLR,,0.00,0.0,WeatherDisplay:10.37,2013-07-03 06:10:00,
2013-07-03 01:30:00,63.1,60.4,30.00,NW,313,0.0,2.0,91,0.00,CLR,,0.00,0.0,WeatherDisplay:10.37,2013-07-03 06:30:00,
2013-07-03 01:40:00,62.9,60.2,30.00,NW,310,0.0,1.0,91,0.00,CLR,,0.00,0.0,WeatherDisplay:10.37,2013-07-03 06:40:00,
2013-07-03 01:50:00,62.7,60.3,30.00,NW,309,0.0,1.0,92,0.00,CLR,,0.00,0.0,WeatherDisplay:10.37,2013-07-03 06:50:00,
2013-07-03 02:00:00,62.3,59.9,30.00,WNW,301,0.0,1.0,92,0.00,CLR,,0.00,0.0,WeatherDisplay:10.37,2013-07-03 07:00:00,
2013-07-03 02:10:00,61.8,59.5,30.00,WNW,298,0.0,1.0,92,0.00,CLR,,0.00,0.0,WeatherDisplay:10.37,2013-07-03 07:10:00,
2013-07-03 02:20:00,61.6,59.6,29.99,WNW,298,0.0,0.0,93,0.00,CLR,,0.00,0.0,WeatherDisplay:10.37,2013-07-03 07:20:00,
2013-07-03 02:30:00,61.2,59.2,29.99,WNW,298,0.0,0.0,93,0.00,CLR,,0.00,0.0,WeatherDisplay:10.37,2013-07-03 07:30:00,
2013-07-03 02:40:00,61.0,59.3,29.99,WNW,295,0.0,0.0,94,0.00,CLR,,0.00,0.0,WeatherDisplay:10.37,2013-07-03 07:40:00,
2013-07-03 02:50:00,60.8,59.1,29.99,WNW,295,0.0,1.0,94,0.00,CLR,,0.00,0.0,WeatherDisplay:10.37,2013-07-03 07:50:00,
2013-07-03 03:00:00,60.7,59.3,30.00,WNW,295,0.0,1.0,95,0.00,CLR,,0.00,0.0,WeatherDisplay:10.37,2013-07-03 08:00:00,
2013-07-03 03:10:00,60.5,59.1,30.00,WNW,295,0.0,0.0,95,0.00,CLR,,0.00,0.0,WeatherDisplay:10.37,2013-07-03 08:10:00,
2013-07-03 03:20:00,60.4,59.0,30.00,WNW,295,0.0,1.0,95,0.00,CLR,,0.00,0.0,WeatherDisplay:10.37,2013-07-03 08:20:00,
2013-07-03 03:30:00,60.3,58.9,30.00,WNW,295,0.0,1.0,95,0.00,CLR,,0.00,0.0,WeatherDisplay:10.37,2013-07-03 08:30:00,
2013-07-03 03:40:00,59.9,58.5,30.00,WNW,295,0.0,0.0,95,0.00,CLR,,0.00,0.0,WeatherDisplay:10.37,2013-07-03 08:40:00,
2013-07-03 03:50:00,59.8,58.7,30.00,WNW,295,0.0,1.0,96,0.00,CLR,,0.00,0.0,WeatherDisplay:10.37,2013-07-03 08:50:00,
2013-07-03 04:00:00,59.9,58.8,30.00,WNW,295,0.0,1.0,96,0.00,CLR,,0.00,0.0,WeatherDisplay:10.37,2013-07-03 09:00:00,
2013-07-03 04:10:00,59.7,58.6,30.01,WNW,295,0.0,0.0,96,0.00,CLR,,0.00,0.0,WeatherDisplay:10.37,2013-07-03 09:10:00,
2013-07-03 04:20:00,59.7,58.6,30.01,WNW,295,0.0,0.0,96,0.00,FEW,,0.00,0.0,WeatherDisplay:10.37,2013-07-03 09:20:00,
2013-07-03 04:30:00,59.8,58.7,30.01,WNW,295,0.0,0.0,96,0.00,FEW,,0.00,0.0,WeatherDisplay:10.37,2013-07-03 09:30:00,
2013-07-03 04:40:00,59.8,58.7,30.01,WNW,295,0.0,1.0,96,0.00,FEW,,0.00,0.0,WeatherDisplay:10.37,2013-07-03 09:40:00,
2013-07-03 04:50:00,59.7,58.6,30.01,WNW,295,0.0,1.0,96,0.00,FEW,,0.00,0.0,WeatherDisplay:10.37,2013-07-03 09:50:00,
2013-07-03 05:00:00,59.7,58.8,30.01,WNW,295,0.0,0.0,97,0.00,SCT,,0.00,0.0,WeatherDisplay:10.37,2013-07-03 10:00:00,
2013-07-03 05:10:00,59.5,58.4,30.01,WNW,295,0.0,1.0,96,0.00,SCT,,0.00,0.0,WeatherDisplay:10.37,2013-07-03 10:10:00,
2013-07-03 05:20:00,59.4,58.3,30.02,WNW,295,0.0,1.0,96,0.00,CLR,,0.00,0.0,WeatherDisplay:10.37,2013-07-03 10:20:00,
2013-07-03 05:30:00,59.5,58.7,30.02,WNW,295,0.0,0.0,97,0.00,CLR,,0.00,0.0,WeatherDisplay:10.37,2013-07-03 10:30:00,
2013-07-03 05:40:00,59.6,58.8,30.02,WNW,295,0.0,0.0,97,0.00,CLR,,0.00,0.0,WeatherDisplay:10.37,2013-07-03 10:40:00,
2013-07-03 05:50:00,59.8,58.9,30.03,WNW,295,0.0,1.0,97,0.00,CLR,,0.00,0.0,WeatherDisplay:10.37,2013-07-03 10:50:00,
2013-07-03 06:00:00,59.7,58.8,30.03,WNW,298,0.0,0.0,97,0.00,CLR,,0.00,0.0,WeatherDisplay:10.37,2013-07-03 11:00:00,
2013-07-03 06:10:00,59.9,59.0,30.04,NW,313,0.0,1.0,97,0.00,CLR,,0.00,0.0,WeatherDisplay:10.37,2013-07-03 11:10:00,
2013-07-03 06:20:00,59.9,59.0,30.04,NW,322,0.0,0.0,97,0.00,CLR,,0.00,0.0,WeatherDisplay:10.37,2013-07-03 11:20:00,
2013-07-03 06:40:00,60.5,59.6,30.05,NNW,332,0.0,1.0,97,0.00,BKN,,0.00,0.0,WeatherDisplay:10.37,2013-07-03 11:40:00,
2013-07-03 06:50:00,60.7,59.8,30.05,ESE,121,0.0,1.0,97,0.00,BKN,,0.00,0.0,WeatherDisplay:10.37,2013-07-03 11:50:00,
2013-07-03 07:00:00,61.0,60.1,30.05,ESE,121,0.0,1.0,97,0.00,BKN,,0.00,0.0,WeatherDisplay:10.37,2013-07-03 12:00:00,
2013-07-03 07:10:00,61.5,60.7,30.05,ESE,122,0.0,1.0,97,0.00,BKN,,0.00,0.0,WeatherDisplay:10.37,2013-07-03 12:10:00,
2013-07-03 07:20:00,62.0,61.1,30.06,ESE,122,0.0,0.0,97,0.00,FEW,,0.00,0.0,WeatherDisplay:10.37,2013-07-03 12:20:00,
2013-07-03 07:30:00,62.6,61.7,30.06,SE,124,0.0,0.0,97,0.00,FEW,,0.00,0.0,WeatherDisplay:10.37,2013-07-03 12:30:00,
2013-07-03 07:40:00,63.1,62.0,30.06,South,178,1.0,2.0,96,0.00,SCT,,0.00,0.0,WeatherDisplay:10.37,2013-07-03 12:40:00,
2013-07-03 07:50:00,63.7,62.0,30.07,WSW,250,0.0,2.0,94,0.00,SCT,,0.00,0.0,WeatherDisplay:10.37,2013-07-03 12:50:00,
2013-07-03 08:00:00,64.2,62.1,30.07,SW,232,0.0,3.0,93,0.00,CLR,,0.00,0.0,WeatherDisplay:10.37,2013-07-03 13:00:00,
2013-07-03 08:10:00,64.6,61.9,30.08,West,279,1.0,3.0,91,0.00,CLR,,0.00,0.0,WeatherDisplay:10.37,2013-07-03 13:10:00,
2013-07-03 08:20:00,65.1,61.7,30.08,NNW,328,1.0,4.0,89,0.00,CLR,,0.00,0.0,WeatherDisplay:10.37,2013-07-03 13:20:00,
2013-07-03 08:30:00,65.2,61.3,30.08,NNW,327,0.0,5.0,87,0.00,CLR,,0.00,0.0,WeatherDisplay:10.37,2013-07-03 13:30:00,
2013-07-03 08:40:00,66.5,62.1,30.08,West,270,1.0,4.0,86,0.00,SCT,,0.00,0.0,WeatherDisplay:10.37,2013-07-03 13:40:00,
2013-07-03 08:50:00,67.2,62.6,30.08,NNW,329,1.0,5.0,85,0.00,SCT,,0.00,0.0,WeatherDisplay:10.37,2013-07-03 13:50:00,
2013-07-03 09:00:00,67.9,62.6,30.08,WSW,256,1.0,4.0,83,0.00,BKN,,0.00,0.0,WeatherDisplay:10.37,2013-07-03 14:00:00,
2013-07-03 09:10:00,67.9,62.2,30.08,NNW,328,2.0,6.0,82,0.00,BKN,,0.00,0.0,WeatherDisplay:10.37,2013-07-03 14:10:00,
2013-07-03 09:20:00,68.6,63.3,30.08,North,9,0.0,4.0,83,0.00,BKN,,0.00,0.0,WeatherDisplay:10.37,2013-07-03 14:20:00,
2013-07-03 09:30:00,68.2,62.2,30.08,NW,315,2.0,6.0,81,0.00,BKN,,0.00,0.0,WeatherDisplay:10.37,2013-07-03 14:30:00,
2013-07-03 09:40:00,68.5,62.5,30.07,NNE,22,2.0,6.0,81,0.00,CLR,,0.00,0.0,WeatherDisplay:10.37,2013-07-03 14:40:00,
2013-07-03 09:50:00,69.4,62.9,30.07,NNE,29,2.0,5.0,80,0.00,CLR,,0.00,0.0,WeatherDisplay:10.37,2013-07-03 14:50:00,
2013-07-03 10:00:00,69.5,63.1,30.07,NW,321,1.0,6.0,80,0.00,CLR,,0.00,0.0,WeatherDisplay:10.37,2013-07-03 15:00:00,
2013-07-03 10:10:00,69.6,62.8,30.07,North,10,5.0,6.0,79,0.00,CLR,,0.00,0.0,WeatherDisplay:10.37,2013-07-03 15:10:00,
2013-07-03 10:20:00,69.4,63.0,30.07,NNW,343,2.0,7.0,80,0.00,CLR,,0.00,0.0,WeatherDisplay:10.37,2013-07-03 15:20:00,
2013-07-03 10:30:00,69.4,62.9,30.07,NW,324,2.0,7.0,80,0.00,CLR,,0.00,0.0,WeatherDisplay:10.37,2013-07-03 15:30:00,
2013-07-03 10:40:00,70.1,63.3,30.07,NW,322,2.0,8.0,79,0.00,CLR,,0.00,0.0,WeatherDisplay:10.37,2013-07-03 15:40:00,
2013-07-03 10:50:00,71.5,63.9,30.08,WNW,294,3.0,7.0,77,0.00,CLR,,0.00,0.0,WeatherDisplay:10.37,2013-07-03 15:50:00,
2013-07-03 11:00:00,71.7,64.1,30.08,WNW,298,2.0,6.0,77,0.00,FEW,,0.00,0.0,WeatherDisplay:10.37,2013-07-03 16:00:00,
2013-07-03 11:10:00,71.2,63.3,30.08,NW,312,1.0,6.0,76,0.00,FEW,,0.00,0.0,WeatherDisplay:10.37,2013-07-03 16:10:00,
2013-07-03 11:30:00,72.7,64.0,30.08,NW,323,3.0,6.0,74,0.00,BKN,,0.00,0.0,WeatherDisplay:10.37,2013-07-03 16:30:00,
2013-07-03 11:40:00,72.5,63.4,30.07,NW,325,3.0,6.0,73,0.00,BKN,,0.00,0.0,WeatherDisplay:10.37,2013-07-03 16:40:00,
2013-07-03 11:50:00,72.8,63.6,30.07,NW,317,1.0,9.0,73,0.00,BKN,,0.00,0.0,WeatherDisplay:10.37,2013-07-03 16:50:00,
2013-07-03 12:00:00,73.7,64.5,30.07,NW,310,1.0,7.0,73,0.00,BKN,,0.00,0.0,WeatherDisplay:10.37,2013-07-03 17:00:00,
2013-07-03 12:10:00,74.0,64.4,30.07,WNW,300,1.0,6.0,72,0.00,BKN,,0.00,0.0,WeatherDisplay:10.37,2013-07-03 17:10:00,
2013-07-03 12:20:00,74.2,63.8,30.07,NW,319,3.0,6.0,70,0.00,BKN,,0.00,0.0,WeatherDisplay:10.37,2013-07-03 17:20:00,
2013-07-03 12:30:00,74.1,64.1,30.07,NNW,348,3.0,7.0,71,0.00,BKN,,0.00,0.0,WeatherDisplay:10.37,2013-07-03 17:30:00,
2013-07-03 12:40:00,76.7,64.5,30.07,East,83,1.0,7.0,66,0.00,OVC,,0.00,0.0,WeatherDisplay:10.37,2013-07-03 17:40:00,
2013-07-03 12:50:00,76.2,65.3,30.07,SSW,209,1.0,4.0,69,0.00,OVC,,0.00,0.0,WeatherDisplay:10.37,2013-07-03 17:50:00,
2013-07-03 13:00:00,76.4,64.2,30.07,WSW,242,2.0,4.0,66,0.00,OVC,,0.00,0.0,WeatherDisplay:10.37,2013-07-03 18:00:00,
2013-07-03 13:10:00,76.0,63.8,30.06,North,1,2.0,4.0,66,0.00,OVC,,0.00,0.0,WeatherDisplay:10.37,2013-07-03 18:10:00,
2013-07-03 13:20:00,76.1,63.9,30.05,NW,307,1.0,4.0,66,0.00,OVC,,0.00,0.0,WeatherDisplay:10.37,2013-07-03 18:20:00,
2013-07-03 13:30:00,76.8,65.0,30.05,WSW,237,3.0,6.0,67,0.00,OVC,,0.00,0.0,WeatherDisplay:10.37,2013-07-03 18:30:00,
2013-07-03 13:40:00,77.5,65.2,30.05,SSW,196,3.0,5.0,66,0.00,OVC,,0.00,0.0,WeatherDisplay:10.37,2013-07-03 18:40:00,
2013-07-03 13:50:00,78.0,64.4,30.05,SSE,161,2.0,7.0,63,0.00,OVC,,0.00,0.0,WeatherDisplay:10.37,2013-07-03 18:50:00,
2013-07-03 14:00:00,78.4,63.3,30.05,West,261,1.0,5.0,60,0.00,BKN,,0.00,0.0,WeatherDisplay:10.37,2013-07-03 19:00:00,
2013-07-03 14:10:00,78.9,63.8,30.04,NW,316,2.0,4.0,60,0.00,BKN,,0.00,0.0,WeatherDisplay:10.37,2013-07-03 19:10:00,
2013-07-03 14:20:00,79.8,64.7,30.04,West,280,5.0,7.0,60,0.00,BKN,,0.00,0.0,WeatherDisplay:10.37,2013-07-03 19:20:00,
2013-07-03 14:30:00,80.5,63.9,30.04,WSW,245,2.0,5.0,57,0.00,BKN,,0.00,0.0,WeatherDisplay:10.37,2013-07-03 19:30:00,
2013-07-03 14:40:00,79.7,64.1,30.04,WSW,248,1.0,3.0,59,0.00,BKN,,0.00,0.0,WeatherDisplay:10.37,2013-07-03 19:40:00,
2013-07-03 14:50:00,79.7,63.1,30.04,West,280,2.0,5.0,57,0.00,BKN,,0.00,0.0,WeatherDisplay:10.37,2013-07-03 19:50:00,
2013-07-03 15:00:00,80.2,63.6,30.04,SSW,206,3.0,5.0,57,0.00,FEW,,0.00,0.0,WeatherDisplay:10.37,2013-07-03 20:00:00,
2013-07-03 15:10:00,80.5,64.3,30.03,WSW,243,3.0,6.0,58,0.00,FEW,,0.00,0.0,WeatherDisplay:10.37,2013-07-03 20:10:00,
2013-07-03 15:20:00,81.0,64.3,30.03,South,172,2.0,4.0,57,0.00,SCT,,0.00,0.0,WeatherDisplay:10.37,2013-07-03 20:20:00,
2013-07-03 15:30:00,82.1,65.9,30.03,SSE,167,2.0,4.0,58,0.00,SCT,,0.00,0.0,WeatherDisplay:10.37,2013-07-03 20:30:00,
2013-07-03 15:40:00,81.6,63.3,30.03,South,182,1.0,4.0,54,0.00,BKN,,0.00,0.0,WeatherDisplay:10.37,2013-07-03 20:40:00,
2013-07-03 15:50:00,83.2,64.3,30.02,SSW,211,2.0,3.0,53,0.00,BKN,,0.00,0.0,WeatherDisplay:10.37,2013-07-03 20:50:00,
2013-07-03 16:00:00,82.8,64.5,30.02,NE,55,1.0,4.0,54,0.00,BKN,,0.00,0.0,WeatherDisplay:10.37,2013-07-03 21:00:00,
2013-07-03 16:10:00,81.4,63.2,30.02,NE,49,2.0,6.0,54,0.00,BKN,,0.00,0.0,WeatherDisplay:10.37,2013-07-03 21:10:00,
2013-07-03 16:20:00,81.1,62.9,30.02,North,9,3.0,5.0,54,0.00,BKN,,0.00,0.0,WeatherDisplay:10.37,2013-07-03 21:20:00,
2013-07-03 16:30:00,81.1,62.9,30.01,NW,317,1.0,5.0,54,0.00,BKN,,0.00,0.0,WeatherDisplay:10.37,2013-07-03 21:30:00,
2013-07-03 16:40:00,83.5,62.9,30.01,NE,51,2.0,5.0,50,0.00,CLR,,0.00,0.0,WeatherDisplay:10.37,2013-07-03 21:40:00,
2013-07-03 16:50:00,83.4,62.8,30.01,SE,137,1.0,4.0,50,0.00,CLR,,0.00,0.0,WeatherDisplay:10.37,2013-07-03 21:50:00,
2013-07-03 17:00:00,82.0,62.6,30.00,SSW,199,1.0,4.0,52,0.00,SCT,,0.00,0.0,WeatherDisplay:10.37,2013-07-03 22:00:00,
2013-07-03 17:10:00,81.8,63.0,30.00,South,191,1.0,3.0,53,0.00,SCT,,0.00,0.0,WeatherDisplay:10.37,2013-07-03 22:10:00,
2013-07-03 17:20:00,84.1,63.5,30.00,South,179,1.0,3.0,50,0.00,FEW,,0.00,0.0,WeatherDisplay:10.37,2013-07-03 22:20:00,
2013-07-03 17:30:00,84.8,64.1,30.00,NE,53,1.0,3.0,50,0.00,FEW,,0.00,0.0,WeatherDisplay:10.37,2013-07-03 22:30:00,
2013-07-03 17:40:00,82.7,62.2,30.00,NE,39,3.0,4.0,50,0.00,FEW,,0.00,0.0,WeatherDisplay:10.37,2013-07-03 22:40:00,
2013-07-03 17:50:00,81.7,62.3,30.00,NE,35,3.0,5.0,52,0.00,FEW,,0.00,0.0,WeatherDisplay:10.37,2013-07-03 22:50:00,
2013-07-03 18:00:00,81.9,63.1,30.00,NNE,13,0.0,3.0,53,0.00,FEW,,0.00,0.0,WeatherDisplay:10.37,2013-07-03 23:00:00,
2013-07-03 18:10:00,82.8,63.9,30.00,SW,220,1.0,4.0,53,0.00,FEW,,0.00,0.0,WeatherDisplay:10.37,2013-07-03 23:10:00,
2013-07-03 18:20:00,82.5,63.6,30.00,SSW,210,2.0,4.0,53,0.00,FEW,,0.00,0.0,WeatherDisplay:10.37,2013-07-03 23:20:00,
2013-07-03 18:30:00,83.1,63.7,30.00,West,260,1.0,2.0,52,0.00,FEW,,0.00,0.0,WeatherDisplay:10.37,2013-07-03 23:30:00,
2013-07-03 18:40:00,82.1,63.2,30.00,SSW,210,1.0,2.0,53,0.00,FEW,,0.00,0.0,WeatherDisplay:10.37,2013-07-03 23:40:00,
2013-07-03 18:50:00,81.9,63.1,30.00,SW,221,1.0,2.0,53,0.00,FEW,,0.00,0.0,WeatherDisplay:10.37,2013-07-03 23:50:00,
2013-07-03 19:00:00,81.7,64.5,30.00,SW,218,1.0,2.0,56,0.00,FEW,,0.00,0.0,WeatherDisplay:10.37,2013-07-04 00:00:00,
2013-07-03 19:10:00,81.3,64.6,30.00,SW,232,0.0,2.0,57,0.00,CLR,,0.00,0.0,WeatherDisplay:10.37,2013-07-04 00:10:00,
2013-07-03 19:20:00,80.6,64.0,30.00,SW,220,1.0,2.0,57,0.00,CLR,,0.00,0.0,WeatherDisplay:10.37,2013-07-04 00:20:00,
2013-07-03 19:30:00,80.3,64.2,30.00,SSW,194,0.0,1.0,58,0.00,CLR,,0.00,0.0,WeatherDisplay:10.37,2013-07-04 00:30:00,
2013-07-03 19:40:00,80.0,63.9,30.01,SSW,193,0.0,0.0,58,0.00,CLR,,0.00,0.0,WeatherDisplay:10.37,2013-07-04 00:40:00,
2013-07-03 19:50:00,79.4,63.4,30.01,SSW,193,0.0,1.0,58,0.00,CLR,,0.00,0.0,WeatherDisplay:10.37,2013-07-04 00:50:00,
2013-07-03 20:00:00,78.7,63.6,30.00,SSW,193,0.0,0.0,60,0.00,CLR,,0.00,0.0,WeatherDisplay:10.37,2013-07-04 01:00:00,
2013-07-03 20:10:00,78.3,63.3,30.00,SSW,193,0.0,0.0,60,0.00,CLR,,0.00,0.0,WeatherDisplay:10.37,2013-07-04 01:10:00,
2013-07-03 20:20:00,77.6,63.5,30.01,NE,56,0.0,2.0,62,0.00,CLR,,0.00,0.0,WeatherDisplay:10.37,2013-07-04 01:20:00,
2013-07-03 20:30:00,77.1,63.1,30.01,NNE,16,1.0,2.0,62,0.00,CLR,,0.00,0.0,WeatherDisplay:10.37,2013-07-04 01:30:00,
2013-07-03 20:40:00,76.9,62.9,30.01,North,4,0.0,2.0,62,0.00,CLR,,0.00,0.0,WeatherDisplay:10.37,2013-07-04 01:40:00,
2013-07-03 20:50:00,76.0,63.3,30.01,NNE,26,0.0,1.0,65,0.00,CLR,,0.00,0.0,WeatherDisplay:10.37,2013-07-04 01:50:00,
2013-07-03 21:00:00,74.8,63.1,30.00,NNE,26,1.0,1.0,67,0.00,CLR,,0.00,0.0,WeatherDisplay:10.37,2013-07-04 02:00:00,
2013-07-03 21:10:00,74.9,63.2,30.00,NNE,29,0.0,1.0,67,0.00,CLR,,0.00,0.0,WeatherDisplay:10.37,2013-07-04 02:10:00,
2013-07-03 21:20:00,73.8,63.0,30.01,NNE,29,0.0,0.0,69,0.00,CLR,,0.00,0.0,WeatherDisplay:10.37,2013-07-04 02:20:00,
2013-07-03 21:30:00,72.7,62.8,30.01,NNE,29,0.0,0.0,71,0.00,CLR,,0.00,0.0,WeatherDisplay:10.37,2013-07-04 02:30:00,
2013-07-03 21:40:00,71.9,63.2,30.02,NNE,29,0.0,0.0,74,0.00,CLR,,0.00,0.0,WeatherDisplay:10.37,2013-07-04 02:40:00,
2013-07-03 21:50:00,71.7,63.3,30.02,NNE,29,0.0,1.0,75,0.00,CLR,,0.00,0.0,WeatherDisplay:10.37,2013-07-04 02:50:00,
2013-07-03 22:00:00,71.4,63.4,30.02,NNE,29,0.0,1.0,76,0.00,CLR,,0.00,0.0,WeatherDisplay:10.37,2013-07-04 03:00:00,
2013-07-03 22:10:00,70.9,63.3,30.03,NNE,29,0.0,0.0,77,0.00,CLR,,0.00,0.0,WeatherDisplay:10.37,2013-07-04 03:10:00,
2013-07-03 22:20:00,70.7,63.5,30.03,NNE,29,0.0,0.0,78,0.00,CLR,,0.00,0.0,WeatherDisplay:10.37,2013-07-04 03:20:00,
2013-07-03 22:30:00,71.0,63.8,30.03,NNE,29,0.0,0.0,78,0.00,CLR,,0.00,0.0,WeatherDisplay:10.37,2013-07-04 03:30:00,
2013-07-03 22:40:00,70.4,63.6,30.03,NNE,28,0.0,0.0,79,0.00,CLR,,0.00,0.0,WeatherDisplay:10.37,2013-07-04 03:40:00,
2013-07-03 22:50:00,70.5,64.0,30.02,North,3,0.0,1.0,80,0.00,CLR,,0.00,0.0,WeatherDisplay:10.37,2013-07-04 03:50:00,
2013-07-03 23:10:00,69.4,63.7,30.02,East,97,0.0,1.0,82,0.00,CLR,,0.00,0.0,WeatherDisplay:10.37,2013-07-04 04:10:00,
2013-07-03 23:20:00,69.0,63.6,30.02,East,100,0.0,1.0,83,0.00,CLR,,0.00,0.0,WeatherDisplay:10.37,2013-07-04 04:20:00,
2013-07-03 23:30:00,69.1,63.7,30.02,East,100,0.0,0.0,83,0.00,CLR,,0.00,0.0,WeatherDisplay:10.37,2013-07-04 04:30:00,
2013-07-03 23:40:00,69.0,63.6,30.02,East,100,0.0,0.0,83,0.00,CLR,,0.00,0.0,WeatherDisplay:10.37,2013-07-04 04:40:00,
2013-07-03 23:50:00,68.8,63.8,30.03,East,100,0.0,1.0,84,0.00,CLR,,0.00,0.0,WeatherDisplay:10.37,2013-07-04 04:50:00,